Location: Praha
(50.0830°N, 14.4670°E)
Time: 23:40:36
(UTC+01:00)

ISS - Pass Details

Date: 07 November 2019
Orbit: 412 x 421 km, 51.6° (Epoch: 15 November)

Event Time Altitude Azimuth Distance (km) Brightness Sun altitude
Exits shadow 04:13:22 24° 82° (E) 909 -1.4 -27.1°
Drops below altitude 10° 04:14:54 10° 88° (E) 1,506 0.0 -26.8°
Sets 04:17:01 0° 92° (E) 2,369 1.4 -26.5°
